N45JH KPHX-KSAN

Flight info

Callsign N45JH
Flight time 0h 54m
Altitude 43000
Route FYRBD1 MOHAK J2 HOGGZ LUCKI1
Aircraft C700/M-VGDW/C

Departure

Time 2026-04-26 04:08
Airport Phoenix Sky Harbor International Airport (KPHX)

Arrival

Time 2026-04-26 05:03
Airport San Diego International Airport (KSAN)
Time Latitude Longitude Altitude Speed Heading
2026-04-26 03:49 33.44231 -112.02192 1123 ft 0 kts 147°
2026-04-26 04:03 33.44207 -112.02169 1123 ft 12 kts 128°
2026-04-26 04:03 33.44196 -112.02028 1119 ft 23 kts 89°
2026-04-26 04:04 33.44198 -112.01817 1122 ft 27 kts 90°
2026-04-26 04:04 33.44197 -112.01589 1125 ft 28 kts 91°
2026-04-26 04:04 33.44195 -112.01338 1126 ft 33 kts 90°
2026-04-26 04:04 33.44196 -112.01037 1126 ft 39 kts 90°
2026-04-26 04:05 33.44196 -112.00701 1125 ft 41 kts 90°
2026-04-26 04:05 33.44197 -112.00351 1123 ft 43 kts 90°
2026-04-26 04:05 33.44197 -111.99935 1127 ft 55 kts 90°
2026-04-26 04:05 33.44195 -111.99542 1128 ft 31 kts 90°
2026-04-26 04:06 33.44194 -111.99283 1128 ft 31 kts 90°
2026-04-26 04:06 33.44181 -111.99099 1122 ft 1 kts 139°
2026-04-26 04:06 33.44180 -111.99099 1122 ft 0 kts 142°
2026-04-26 04:07 33.44172 -111.99097 1122 ft 4 kts 168°
2026-04-26 04:07 33.44097 -111.99104 1125 ft 16 kts 211°
2026-04-26 04:07 33.44083 -111.99176 1131 ft 13 kts 268°
2026-04-26 04:07 33.44081 -111.99684 1132 ft 111 kts 270°
2026-04-26 04:08 33.44094 -112.00954 1217 ft 181 kts 270°
2026-04-26 04:08 33.44127 -112.02454 1419 ft 177 kts 271°
2026-04-26 04:08 33.44158 -112.03899 1709 ft 172 kts 271°
2026-04-26 04:08 33.44192 -112.05445 2007 ft 198 kts 271°
2026-04-26 04:09 33.44228 -112.07201 2316 ft 225 kts 270°
2026-04-26 04:09 33.44258 -112.09175 2654 ft 249 kts 268°
2026-04-26 04:09 33.43722 -112.11138 2976 ft 252 kts 236°
2026-04-26 04:09 33.42601 -112.12750 3501 ft 252 kts 230°
2026-04-26 04:10 33.41539 -112.14432 4249 ft 255 kts 233°
2026-04-26 04:10 33.40274 -112.15901 4986 ft 254 kts 217°
2026-04-26 04:10 33.38739 -112.16951 5723 ft 257 kts 203°
2026-04-26 04:10 33.37011 -112.17514 6456 ft 259 kts 190°
2026-04-26 04:11 33.35196 -112.17541 7169 ft 263 kts 176°
2026-04-26 04:11 33.33380 -112.17069 7759 ft 275 kts 169°
2026-04-26 04:11 33.31495 -112.16895 7777 ft 263 kts 186°
2026-04-26 04:11 33.29730 -112.17273 7766 ft 260 kts 198°
2026-04-26 04:12 33.28058 -112.18176 7769 ft 265 kts 211°
2026-04-26 04:12 33.26628 -112.19542 7775 ft 264 kts 225°
2026-04-26 04:12 33.25472 -112.21259 7785 ft 266 kts 232°
2026-04-26 04:12 33.24359 -112.22992 8128 ft 255 kts 231°
2026-04-26 04:13 33.23242 -112.24708 8881 ft 271 kts 231°
2026-04-26 04:13 33.22093 -112.26502 9591 ft 273 kts 231°
2026-04-26 04:13 33.20953 -112.28281 10164 ft 274 kts 231°
2026-04-26 04:13 33.19787 -112.30092 10642 ft 273 kts 231°
2026-04-26 04:14 33.18631 -112.31884 11118 ft 275 kts 232°
2026-04-26 04:14 33.17469 -112.33688 11609 ft 274 kts 232°
2026-04-26 04:14 33.16302 -112.35498 12107 ft 275 kts 232°
2026-04-26 04:14 33.15134 -112.37308 12613 ft 276 kts 232°
2026-04-26 04:15 33.13965 -112.39121 13126 ft 275 kts 232°
2026-04-26 04:15 33.12794 -112.40935 13633 ft 276 kts 233°
2026-04-26 04:15 33.11620 -112.42750 14098 ft 278 kts 233°
2026-04-26 04:15 33.10439 -112.44579 14570 ft 278 kts 233°
2026-04-26 04:16 33.09250 -112.46418 15008 ft 280 kts 233°
2026-04-26 04:16 33.08051 -112.48271 15028 ft 278 kts 233°
2026-04-26 04:16 33.06883 -112.50076 15047 ft 284 kts 233°
2026-04-26 04:16 33.05683 -112.51928 15171 ft 266 kts 233°
2026-04-26 04:17 33.04587 -112.53617 15550 ft 263 kts 233°
2026-04-26 04:17 33.03425 -112.55417 15952 ft 279 kts 233°
2026-04-26 04:17 33.02234 -112.57253 16360 ft 282 kts 233°
2026-04-26 04:17 33.01041 -112.59087 17150 ft 282 kts 233°
2026-04-26 04:18 32.99826 -112.60962 17931 ft 287 kts 234°
2026-04-26 04:18 32.98599 -112.62849 18645 ft 289 kts 234°
2026-04-26 04:18 32.97380 -112.64749 19345 ft 289 kts 236°
2026-04-26 04:18 32.96359 -112.66811 20064 ft 290 kts 244°
2026-04-26 04:19 32.95596 -112.69037 20793 ft 291 kts 251°
2026-04-26 04:19 32.95109 -112.71389 21542 ft 295 kts 258°
2026-04-26 04:19 32.94800 -112.73809 22313 ft 296 kts 258°
2026-04-26 04:19 32.94464 -112.76230 23110 ft 297 kts 258°
2026-04-26 04:20 32.94132 -112.78655 23828 ft 297 kts 258°
2026-04-26 04:20 32.93807 -112.81091 24514 ft 298 kts 258°
2026-04-26 04:20 32.93481 -112.83520 25210 ft 297 kts 258°
2026-04-26 04:20 32.93153 -112.85939 25925 ft 295 kts 258°
2026-04-26 04:21 32.92829 -112.88338 26654 ft 292 kts 258°
2026-04-26 04:21 32.92507 -112.90707 27402 ft 289 kts 258°
2026-04-26 04:21 32.92189 -112.93051 28168 ft 285 kts 258°
2026-04-26 04:21 32.91875 -112.95358 28966 ft 281 kts 258°
2026-04-26 04:22 32.91566 -112.97632 29763 ft 276 kts 258°
2026-04-26 04:22 32.91261 -112.99871 30470 ft 271 kts 258°
2026-04-26 04:22 32.90962 -113.02063 31177 ft 265 kts 258°
2026-04-26 04:22 32.90669 -113.04203 31905 ft 258 kts 257°
2026-04-26 04:23 32.90382 -113.06303 32481 ft 257 kts 257°
2026-04-26 04:23 32.90190 -113.07694 32821 ft 257 kts 257°
2026-04-26 04:23 32.89902 -113.09793 33323 ft 257 kts 257°
2026-04-26 04:23 32.89615 -113.11883 33833 ft 255 kts 257°
2026-04-26 04:24 32.89330 -113.13959 34283 ft 253 kts 257°
2026-04-26 04:24 32.88956 -113.16673 34887 ft 250 kts 257°
2026-04-26 04:24 32.88676 -113.18701 35358 ft 247 kts 257°
2026-04-26 04:24 32.88403 -113.20689 35860 ft 238 kts 258°
2026-04-26 04:25 32.88131 -113.22641 36337 ft 240 kts 258°
2026-04-26 04:25 32.87947 -113.23965 36679 ft 241 kts 258°
2026-04-26 04:25 32.87676 -113.25931 37194 ft 241 kts 258°
2026-04-26 04:25 32.87405 -113.27876 37637 ft 243 kts 258°
2026-04-26 04:26 32.87125 -113.29894 38071 ft 245 kts 258°
2026-04-26 04:26 32.86850 -113.31873 38486 ft 246 kts 258°
2026-04-26 04:26 32.86571 -113.33881 38843 ft 246 kts 258°
2026-04-26 04:26 32.86287 -113.35921 39201 ft 246 kts 258°
2026-04-26 04:27 32.86010 -113.37900 39558 ft 246 kts 258°
2026-04-26 04:27 32.85731 -113.39902 39926 ft 245 kts 258°
2026-04-26 04:27 32.85451 -113.41894 40297 ft 243 kts 258°
2026-04-26 04:27 32.85176 -113.43870 40671 ft 241 kts 258°
2026-04-26 04:28 32.84901 -113.45827 41051 ft 239 kts 258°
2026-04-26 04:28 32.84629 -113.47770 41337 ft 239 kts 258°
2026-04-26 04:28 32.84354 -113.49718 41573 ft 235 kts 258°
2026-04-26 04:28 32.84087 -113.51621 41810 ft 233 kts 258°
2026-04-26 04:29 32.83817 -113.53526 42049 ft 234 kts 258°
2026-04-26 04:29 32.83545 -113.55460 42297 ft 234 kts 258°
2026-04-26 04:29 32.83276 -113.57371 42545 ft 234 kts 258°
2026-04-26 04:29 32.83005 -113.59280 42771 ft 235 kts 258°
2026-04-26 04:30 32.82733 -113.61203 42771 ft 243 kts 258°
2026-04-26 04:30 32.82448 -113.63211 42773 ft 250 kts 258°
2026-04-26 04:30 32.82156 -113.65279 42785 ft 257 kts 258°
2026-04-26 04:30 32.81853 -113.67408 42785 ft 265 kts 258°
2026-04-26 04:31 32.81541 -113.69599 42795 ft 272 kts 259°
2026-04-26 04:31 32.81221 -113.71849 42787 ft 280 kts 259°
2026-04-26 04:31 32.80893 -113.74156 42795 ft 287 kts 259°
2026-04-26 04:31 32.80555 -113.76523 42798 ft 294 kts 259°
2026-04-26 04:32 32.80209 -113.78946 42798 ft 301 kts 259°
2026-04-26 04:32 32.79492 -113.83952 42797 ft 314 kts 259°
2026-04-26 04:33 32.78743 -113.89169 42801 ft 327 kts 259°
2026-04-26 04:33 32.77963 -113.94589 42807 ft 338 kts 259°
2026-04-26 04:34 32.77552 -114.00255 42811 ft 352 kts 266°
2026-04-26 04:34 32.77495 -114.06148 42820 ft 362 kts 266°
2026-04-26 04:35 32.77716 -114.12220 42829 ft 373 kts 269°
2026-04-26 04:35 32.77945 -114.18445 42842 ft 382 kts 269°
2026-04-26 04:36 32.78209 -114.24821 42851 ft 390 kts 269°
2026-04-26 04:36 32.78458 -114.31322 42861 ft 397 kts 269°
2026-04-26 04:37 32.78913 -114.37905 42861 ft 401 kts 275°
2026-04-26 04:37 32.80320 -114.44331 42775 ft 405 kts 283°
2026-04-26 04:37 32.81199 -114.47496 42261 ft 410 kts 282°
2026-04-26 04:38 32.82073 -114.50697 41718 ft 404 kts 282°
2026-04-26 04:38 32.82939 -114.53850 41187 ft 398 kts 282°
2026-04-26 04:38 32.83794 -114.56950 40661 ft 392 kts 282°
2026-04-26 04:38 32.84634 -114.60012 40143 ft 388 kts 282°
2026-04-26 04:39 32.85466 -114.63060 39622 ft 387 kts 282°
2026-04-26 04:39 32.86300 -114.66111 39109 ft 389 kts 282°
2026-04-26 04:39 32.87038 -114.69201 38598 ft 387 kts 277°
2026-04-26 04:39 32.87529 -114.72335 38039 ft 383 kts 273°
2026-04-26 04:40 32.87782 -114.75471 37536 ft 380 kts 269°
2026-04-26 04:40 32.87804 -114.78620 37031 ft 382 kts 265°
2026-04-26 04:40 32.87720 -114.81793 36521 ft 386 kts 265°
2026-04-26 04:40 32.87659 -114.85008 36008 ft 391 kts 266°
2026-04-26 04:41 32.87597 -114.88225 35496 ft 385 kts 265°
2026-04-26 04:41 32.87526 -114.91363 34990 ft 374 kts 265°
2026-04-26 04:41 32.87452 -114.94409 34505 ft 364 kts 265°
2026-04-26 04:41 32.87383 -114.97395 34032 ft 359 kts 265°
2026-04-26 04:42 32.87315 -115.00361 33535 ft 360 kts 265°
2026-04-26 04:42 32.87245 -115.03340 33056 ft 361 kts 265°
2026-04-26 04:42 32.87174 -115.06335 32582 ft 362 kts 265°
2026-04-26 04:42 32.87103 -115.09322 32105 ft 360 kts 265°
2026-04-26 04:43 32.87033 -115.12290 31634 ft 358 kts 265°
2026-04-26 04:43 32.86960 -115.15251 31164 ft 364 kts 265°
2026-04-26 04:43 32.86877 -115.18382 30670 ft 392 kts 265°
2026-04-26 04:43 32.86797 -115.21670 30149 ft 398 kts 266°
2026-04-26 04:44 32.86722 -115.24946 29592 ft 394 kts 266°
2026-04-26 04:44 32.86640 -115.28187 29068 ft 391 kts 265°
2026-04-26 04:44 32.86554 -115.31409 28554 ft 389 kts 265°
2026-04-26 04:44 32.86392 -115.34610 28045 ft 386 kts 262°
2026-04-26 04:45 32.85972 -115.37760 27533 ft 385 kts 259°
2026-04-26 04:45 32.85529 -115.40895 27036 ft 385 kts 259°
2026-04-26 04:45 32.85107 -115.43988 26537 ft 383 kts 259°
2026-04-26 04:45 32.84664 -115.47155 26031 ft 388 kts 259°
2026-04-26 04:46 32.84182 -115.50350 25845 ft 402 kts 258°
2026-04-26 04:46 32.83640 -115.53626 25696 ft 407 kts 258°
2026-04-26 04:46 32.83094 -115.56942 25200 ft 407 kts 258°
2026-04-26 04:46 32.82565 -115.60223 24631 ft 401 kts 258°
2026-04-26 04:47 32.82032 -115.63495 23814 ft 403 kts 258°
2026-04-26 04:47 32.81498 -115.66731 22905 ft 382 kts 258°
2026-04-26 04:47 32.81010 -115.69709 21929 ft 378 kts 258°
2026-04-26 04:47 32.80492 -115.72840 21001 ft 388 kts 258°
2026-04-26 04:48 32.79466 -115.79077 19208 ft 381 kts 258°
2026-04-26 04:48 32.78958 -115.82151 18363 ft 378 kts 258°
2026-04-26 04:48 32.78487 -115.85212 17474 ft 375 kts 262°
2026-04-26 04:49 32.78290 -115.88266 16915 ft 368 kts 264°
2026-04-26 04:49 32.78056 -115.91311 16347 ft 373 kts 263°
2026-04-26 04:49 32.77792 -115.94377 15709 ft 372 kts 263°
2026-04-26 04:49 32.77570 -115.97418 15080 ft 367 kts 264°
2026-04-26 04:50 32.77360 -116.00424 14464 ft 364 kts 264°
2026-04-26 04:50 32.77131 -116.03417 13862 ft 363 kts 263°
2026-04-26 04:50 32.76901 -116.06396 13216 ft 362 kts 264°
2026-04-26 04:50 32.76679 -116.09329 12568 ft 360 kts 264°
2026-04-26 04:51 32.76455 -116.12319 11949 ft 356 kts 264°
2026-04-26 04:51 32.76237 -116.15160 11891 ft 348 kts 264°
2026-04-26 04:51 32.76014 -116.18063 11900 ft 355 kts 264°
2026-04-26 04:51 32.75791 -116.20971 11911 ft 353 kts 264°
2026-04-26 04:52 32.75570 -116.23870 11909 ft 352 kts 263°
2026-04-26 04:52 32.75344 -116.26765 11916 ft 351 kts 264°
2026-04-26 04:52 32.75121 -116.29653 11850 ft 353 kts 264°
2026-04-26 04:52 32.74896 -116.32559 11459 ft 350 kts 264°
2026-04-26 04:53 32.74678 -116.35401 11083 ft 338 kts 264°
2026-04-26 04:53 32.74470 -116.38092 10700 ft 315 kts 263°
2026-04-26 04:53 32.74274 -116.40598 10324 ft 296 kts 264°
2026-04-26 04:53 32.74088 -116.42964 9970 ft 280 kts 264°
2026-04-26 04:54 32.73913 -116.45204 9948 ft 269 kts 264°
2026-04-26 04:54 32.73732 -116.47464 9950 ft 282 kts 264°
2026-04-26 04:54 32.73550 -116.49790 9955 ft 282 kts 264°
2026-04-26 04:54 32.73331 -116.52096 9960 ft 281 kts 263°
2026-04-26 04:55 32.73105 -116.54413 9963 ft 284 kts 263°
2026-04-26 04:55 32.72887 -116.56742 9948 ft 284 kts 263°
2026-04-26 04:55 32.72661 -116.59100 9551 ft 289 kts 263°
2026-04-26 04:55 32.72430 -116.61449 9119 ft 283 kts 263°
2026-04-26 04:56 32.72208 -116.63747 8731 ft 277 kts 263°
2026-04-26 04:56 32.71996 -116.65954 8393 ft 278 kts 264°
2026-04-26 04:56 32.71829 -116.68253 8039 ft 280 kts 265°
2026-04-26 04:56 32.71644 -116.70523 7696 ft 280 kts 264°
2026-04-26 04:57 32.71454 -116.72860 7346 ft 281 kts 264°
2026-04-26 04:57 32.71273 -116.75162 7003 ft 280 kts 265°
2026-04-26 04:57 32.71094 -116.77452 6645 ft 278 kts 265°
2026-04-26 04:57 32.70917 -116.79702 6290 ft 277 kts 265°
2026-04-26 04:58 32.70658 -116.81969 5927 ft 277 kts 257°
2026-04-26 04:58 32.70019 -116.84134 5583 ft 279 kts 249°
2026-04-26 04:58 32.69358 -116.86299 5243 ft 280 kts 254°
2026-04-26 04:58 32.69084 -116.88572 5018 ft 275 kts 268°
2026-04-26 04:59 32.69213 -116.90750 5006 ft 255 kts 279°
2026-04-26 04:59 32.69530 -116.92755 4994 ft 242 kts 278°
2026-04-26 04:59 32.69793 -116.94708 5001 ft 240 kts 278°
2026-04-26 04:59 32.70069 -116.96664 4997 ft 242 kts 279°
2026-04-26 05:00 32.70362 -116.98647 4992 ft 242 kts 279°
2026-04-26 05:00 32.70645 -117.00617 4991 ft 242 kts 279°
2026-04-26 05:00 32.70927 -117.02584 4995 ft 242 kts 279°
2026-04-26 05:00 32.71211 -117.04558 5017 ft 242 kts 279°
2026-04-26 05:01 32.71492 -117.06529 5019 ft 242 kts 279°
2026-04-26 05:01 32.71774 -117.08504 5019 ft 242 kts 279°
2026-04-26 05:01 32.72058 -117.10477 5017 ft 242 kts 279°
2026-04-26 05:01 32.72276 -117.12357 3832 ft 233 kts 274°
2026-04-26 05:02 32.72402 -117.14129 3082 ft 145 kts 272°
2026-04-26 05:02 32.72630 -117.15353 1220 ft 156 kts 281°
2026-04-26 05:02 32.72795 -117.16546 364 ft 128 kts 280°
2026-04-26 05:02 32.72977 -117.17442 97 ft 101 kts 288°
2026-04-26 05:03 32.73196 -117.18285 29 ft 107 kts 288°
2026-04-26 05:03 32.73318 -117.18773 20 ft 18 kts 303°
2026-04-26 05:03 32.73405 -117.18811 16 ft 0 kts 12°
2026-04-26 05:04 32.73428 -117.18774 16 ft 19 kts 89°
2026-04-26 05:04 32.73377 -117.18571 19 ft 33 kts 105°
2026-04-26 05:04 32.73372 -117.18413 19 ft 15 kts 36°
2026-04-26 05:05 32.73471 -117.18400 18 ft 14 kts 45°